Zurück zum Katalog

COSMOS 397 DEB *

AktivLEO
NORAD 13776·DEBRIS·🇷🇺 Russia

Gestartet Feb 25, 1971 von Baikonur Cosmodrome

Loading…

Nächste Überflüge (nächste 24 Stunden)

TLE

AktuellSource: Space-Track

Epoche: Sep 14, 2026, 17:52 UTC

1 13776U 71015CN  26257.74444878  .00000975  00000-0  55689-3 0  9993
2 13776  65.8546 253.2794 0477954  25.8371 145.8304 13.68230719134232

Verfolge COSMOS 397 DEB * in Echtzeit mit AllMySat

Download on the App Store